Regional Weather Roundup
Issued by NWS Upton, NY

Current Version | Previous Version | Text Only | Print | Product List | Glossary Off
Versions: 1 2 3 4 5 6 7 8 9 10 11 12 13 14 15 16 17 18 19 20 21 22 23 24 25 26 27 28 29 30 31 32 33 34 35 36 37 38 39 40 41 42 43 44 45 46 47 48 49 50
000 ASUS41 KOKX 232005 RWROKX REGIONAL WEATHER ROUNDUP NATIONAL WEATHER SERVICE NEW YORK NY 300 PM EST SUN NOV 23 2014 NOTE: "FAIR" INDICATES FEW OR NO CLOUDS BELOW 12,000 FEET WITH NO SIGNIFICANT WEATHER AND/OR OBSTRUCTIONS TO VISIBILITY. NYZ071-072-176-178-NJZ106-104-232100- NEW YORK CITY METRO AREA CITY SKY/WX TMP DP RH WIND PRES REMARKS CENTRAL PARK SUNNY 56 25 30 CALM 30.16S LAGUARDIA APRT PTSUNNY 55 24 30 SW8 30.14S KENNEDY INTL PTSUNNY 53 32 44 S8 30.16F NEWARK/LIBERTY PTSUNNY 56 26 31 S7 30.14S BRNX BOT. GARD N/A N/A N/A N/A S6 30.15S TETERBORO SUNNY 57 26 30 VRB6 30.13R $$ NYZ177-179-078>081-232100- LONG ISLAND NEW YORK CITY SKY/WX TMP DP RH WIND PRES REMARKS FARMINGDALE SUNNY 53 29 39 SW7 30.15F ISLIP PTSUNNY 51 31 46 SW9 30.14F SHIRLEY SUNNY 51 34 52 S7 30.16F WESTHAMPTON SUNNY 52 35 52 SW10 30.16F MONTAUK POINT N/A 52 39 61 S9G17 30.17S $$ NYZ052-065-067-232100- HUDSON VALLEY CITY SKY/WX TMP DP RH WIND PRES REMARKS WHITE PLAINS MOSUNNY 53 25 33 S5 30.13R NEWBURGH PTSUNNY 57 30 35 W5 30.11R MONTGOMERY MOSUNNY 57 27 31 SW5 30.10R POUGHKEEPSIE MOSUNNY 57 27 31 SW3 30.11R ALBANY PTSUNNY 53 28 38 SE3 30.07F $$ NJZ001-105-106-008-010-013-015-019>022-104-232100- NEW JERSEY CITY SKY/WX TMP DP RH WIND PRES REMARKS NEWARK/LIBERTY PTSUNNY 56 26 31 S7 30.14S TETERBORO SUNNY 57 26 30 VRB6 30.13R CALDWELL SUNNY 57 24 28 SW7 30.13S MORRISTOWN PTSUNNY 57 25 28 S8 30.13S SOMERVILLE SUNNY 58 26 29 S5 30.11F SUSSEX MOSUNNY 58 25 28 SW6 30.11R ANDOVER N/A 58 25 28 SW7 30.11S TRENTON MOSUNNY 55 25 31 S10 30.13F MILLVILLE CLOUDY 55 39 54 VRB3 30.15F ATLANTIC CITY CLOUDY 56 44 64 S7 30.15F WRIGHTSTOWN MOSUNNY 56 26 31 SW6 30.12F TOMS RIVER MOSUNNY 55 30 38 SW5 30.15S BELMAR SUNNY 55 27 33 SW7 30.14S $$ PAZ047>061-062-071-232100- EASTERN PENNSYLVANIA CITY SKY/WX TMP DP RH WIND PRES REMARKS PHILADELPHIA CLOUDY 54 27 35 S9 30.14F ALLENTOWN MOSUNNY 59 25 27 CALM 30.10F SCRANTON PTSUNNY 56 24 29 W7 30.07F $$ CTZ002-004>006-009-010-012-RIZ004-006-007-MAZ004-011-015-232100- SOUTHERN NEW ENGLAND IN CT CITY SKY/WX TMP DP RH WIND PRES REMARKS BRADLEY INTL PTSUNNY 59 27 29 SE9 30.09F HARTFORD MOSUNNY 57 29 34 S6 30.10F DANBURY MOSUNNY 58 28 32 SW5 30.13R WTRBRY/OXFORD MOSUNNY 55 28 35 VRB5 30.13R BRIDGEPORT SUNNY 53 34 48 SW6 30.14S MERIDEN SUNNY 55 29 36 S9 30.13R NEW HAVEN PTSUNNY 54 31 41 SW5 30.14S CHESTER FAIR 54 28 37 S8 30.15R GROTON SUNNY 50 37 61 SW7 30.15R HAZE WILLIMANTIC MOSUNNY 61 31 32 S5 30.11F IN RI CITY SKY/WX TMP DP RH WIND PRES REMARKS PROVIDENCE PTSUNNY 56 35 45 SE6 30.13S BLOCK ISLAND SUNNY 52 39 62 SW17 30.16S WESTERLY SUNNY 51 35 54 SW9 30.16S IN MA CITY SKY/WX TMP DP RH WIND PRES REMARKS BOSTON PTSUNNY 58 38 47 SW5 30.11R WORCESTER MOSUNNY 55 37 50 W6 30.10F WESTFIELD PTSUNNY 56 27 32 SE5 30.09F PROVINCETOWN PTSUNNY 54 39 58 S9 30.14R NANTUCKET SUNNY 55 44 66 SW16 30.17R $$ ANZ330-335-338-340-345-350-353-355-232100- COASTAL MARINE OBSERVATIONS STATION/POSITION TIME SKY/WX TEMP WIND PRES VSBY WAVE AIR SEA DIR/SP/G HT/PER (UTC) (F) (DEG/KT/KT) (MB) (MI) (FT/S) NY HARB ENTRANCE 2000 53 52 210/ 12/ 14 1021.2 4/ 6 4S FIRE IS 2000 53 N/A 4/ 7 20S FIRE ISLAND 2000 53 55 230/ 14/ 16 1021.0 5/ 7 23SW MTP 2000 N/A 7/ 8 HUDSON CANYON 2000 57 59 220/ 16/ 17 1021.9 5/ 6 EXECUTION ROCKS NOT AVBL WESTERN LI SOUND NOT AVBL CENTRAL LI SOUND NOT AVBL EASTERN LI SOUND NOT AVBL ROBBINS REEF 2000 52 160/ 10/ 11 1019.3 $$ >>>>>>>>>>>>>>>>>>>>>>>>>>>> KEY <<<<<<<<<<<<<<<<<<<<<<<<<<< > < > SKY/WX - SKY CONDITION/PRESENT WEATHER < > TMP - TEMPERATURE IN FAHRENHEIT < > DP - DEWPOINT IN FAHRENHEIT < > RH - RELATIVE HUMIDITY IN PERCENT < > WIND - DIRECTION AND SPEED IN MPH < > PRES - MEAN SEA LEVEL PRESSURE IN INCHES OF HG < > WCI - WIND CHILL INDEX < > VSB - VISIBILITY IN MILES < > HX - HEAT INDEX < > TC - TEMPERATURE IN CELSIUS < > VRB - VARIABLE WIND DIRECTION < > < >>>>>>>>>>>>>>>>>>>>>>>>>>>> KEY <<<<<<<<<<<<<<<<<<<<<<<<<<<

USA.gov is the U.S. government's official web portal to all federal, state and local government web resources and services.